Location: Bednik
(45.3500°N, 16.3833°E)
Time: 17:21:13
(UTC+00:00)

Cosmos 1464 Rocket - Pass Details

Date: 08 August 2020
Orbit: 952 x 1001 km, 82.9° (Epoch: 25 September)

Event Time Altitude Azimuth Distance (km) Brightness Sun altitude
Exits shadow 23:15:40 82° 149° (SSE) 993 3.8 -28.8°
Maximum altitude 23:15:55 85° 97° (E) 987 3.9 -28.8°
Drops below altitude 10° 23:22:10 10° 9° (N) 2,719 7.3 -28.7°
Sets 23:24:40 0° 9° (N) 3,664 8.3 -28.6°
